Wind_Speed
17 13 18 16 20 17 17 12 10 14 13 12 15 19 22 19 17 18 21 20 21 22 24 21 20 15 11 17 18 13 20 17 16 15 27 33 34 37 38 38 38 34 40 37
15 22 16 21 18 11 13 13 18 20 19 18 15 17 16 15 8 14 16 17 14 16 14 16 12 18 15 15 13 10 7 8 8 7 14 20 31 29 33 39 41 45 40 45
10 25 5 14 26 14 15 13 14 10 13 10 15 11 12 14 16 18 13 13 15 17 18 22 23 19 16 14 12 10 9 9 14 14 14 13 19 25 29 29 30 34 37 36
11 21 6 6 11 17 19 23 20 16 18 10 11 13 17 18 14 11 10 12 13 13 15 17 17 18 17 15 14 14 14 10 11 14 17 18 18 17 19 22 30 38 40 41
4 9 6 16 19 19 17 19 21 22 22 18 13 9 11 11 9 7 7 8 12 15 17 18 20 20 20 20 19 20 22 20 19 18 19 20 20 23 25 26 25 25 26 32
7 2 4 11 10 13 4 11 15 16 14 9 5 4 10 6 5 7 10 12 16 19 22 23 23 25 26 25 24 24 24 26 26 26 27 26 24 25 27 29 32 31 30 29
7 3 2 16 9 9 4 4 19 16 16 11 8 10 10 9 10 12 15 17 19 22 26 28 31 31 31 31 31 32 34 33 32 32 32 31 31 31 31 31 32 33 37 37
6 5 6 14 4 16 15 18 11 9 11 11 12 13 14 15 17 19 21 24 25 27 28 30 32 34 35 37 38 39 41 41 41 40 39 39 40 38 38 38 37 36 37 38
8 10 15 9 12 12 8 10 12 14 13 13 13 14 16 18 18 19 20 22 24 27 29 32 34 36 35 34 36 38 41 42 43 44 43 43 43 45 45 44 43 41 40 39
7 12 12 7 5 6 9 10 13 14 13 12 12 11 11 13 17 20 22 24 22 20 24 27 30 34 37 40 41 42 43 45 47 49 49 50 49 49 49 48 48 49 47 44
10 14 15 15 13 9 9 14 19 15 11 10 10 11 12 14 15 17 18 17 23 27 29 30 32 33 34 37 39 40 42 43 46 50 55 57 58 58 55 54 54 53 51 49
13 18 17 16 16 13 13 16 16 12 11 11 11 12 14 16 18 19 21 22 25 28 30 30 33 31 33 34 35 37 40 43 47 49 51 53 55 57 59 61 58 59 57 53
16 21 16 15 15 15 16 18 13 11 10 11 13 15 16 18 20 21 23 25 27 29 30 31 33 34 33 32 34 35 38 42 45 48 48 48 50 53 56 58 58 57 56 55
19 20 17 17 17 16 13 12 12 13 13 14 16 18 20 21 22 23 25 27 28 29 29 31 29 31 31 33 34 34 38 39 41 41 37 34 35 38 42 45 50 53 51 49
19 13 13 16 18 14 13 13 14 16 18 20 22 23 24 24 25 26 27 28 30 30 30 29 28 30 31 34 34 34 37 33 34 35 33 30 33 38 39 38 38 38 40 44
14 12 12 14 14 15 16 18 20 22 24 26 27 27 27 27 27 28 29 29 30 31 31 30 27 30 32 33 33 32 33 30 29 31 28 29 33 37 39 37 33 31 30 36
12 13 14 14 15 18 21 24 26 28 28 28 27 27 27 26 26 26 27 28 29 29 31 33 28 29 30 32 32 32 33 31 28 26 26 25 27 26 20 20 22 23 25 31
13 15 17 19 21 24 26 28 29 30 31 32 31 31 31 30 29 28 28 29 28 27 28 29 27 27 28 30 30 31 29 30 27 22 21 16 17 9 4 8 12 16 19 27
17 20 22 26 28 30 31 33 34 35 37 38 37 36 35 34 32 30 29 29 29 28 27 27 26 26 26 26 27 29 28 29 28 19 17 10 7 6 3 6 9 14 20 29
22 25 29 30 31 31 32 33 34 35 35 37 37 36 34 33 31 30 28 27 27 27 26 26 27 23 24 24 24 27 28 28 27 18 15 9 6 6 3 6 6 10 16 22
24 25 27 26 25 25 25 28 30 31 31 31 33 31 29 28 27 26 25 24 23 23 23 24 25 22 22 21 21 23 26 26 25 21 14 14 5 4 6 8 11 15 17 21
23 25 24 24 25 26 27 27 28 29 30 30 29 30 30 27 23 20 21 23 23 22 22 21 22 21 20 19 19 18 21 23 22 20 17 15 16 13 13 15 16 15 17 19
24 23 23 24 25 26 28 30 30 29 28 27 26 24 23 21 18 16 18 20 21 22 22 20 20 20 17 18 16 14 15 16 15 16 18 19 17 14 12 13 14 16 20 23
23 23 23 24 25 26 27 27 27 26 26 23 20 16 16 14 13 15 15 17 22 22 23 20 18 17 16 15 13 12 10 13 10 10 13 16 19 22 23 21 19 18 20 23
25 24 23 23 24 25 26 26 25 23 22 20 18 18 17 22 21 22 22 25 25 23 23 19 16 16 16 13 12 9 7 9 7 6 8 10 13 16 19 20 20 21 21 22
26 24 23 22 23 24 24 24 23 21 19 19 18 19 20 22 25 27 26 23 21 20 19 16 12 13 13 13 10 7 6 6 5 4 5 7 9 10 12 15 16 17 18 17
26 23 22 21 22 22 21 20 19 19 18 17 17 18 19 20 22 22 21 16 14 12 13 9 10 11 10 10 10 6 4 4 4 1 2 3 5 6 8 10 12 14 14 15
Wind_Direction
357 356 343 353 3 10 32 54 52 75 95 116 108 100 90 76 76 45 39 43 42 44 49 38 41 60 102 174 185 176 169 168 181 192 212 216 223 233 241 239 243 246 240 239
359 357 27 44 28 28 33 46 76 84 100 110 95 90 94 104 77 63 59 52 45 44 63 66 49 30 21 18 353 2 214 200 190 217 224 211 221 224 224 230 245 251 249 246
329 353 21 28 36 58 69 63 76 66 104 93 94 84 123 138 113 90 78 55 38 26 9 4 11 22 21 11 359 329 342 318 310 283 257 239 233 236 234 237 246 249 250 251
317 353 30 34 59 65 74 79 86 106 105 80 93 102 95 84 81 78 51 36 16 6 1 357 352 354 344 341 339 334 327 311 293 273 271 269 252 246 257 259 255 251 251 252
327 326 301 16 19 30 37 61 91 101 106 98 80 79 86 75 60 45 26 4 340 336 330 322 327 322 317 315 312 309 306 305 297 286 280 270 265 261 256 250 254 252 253 253
290 355 358 353 20 344 136 57 69 78 72 50 14 40 69 58 9 339 324 311 309 308 308 310 306 303 301 300 297 298 298 295 294 291 285 279 270 261 258 260 258 256 256 257
6 331 354 336 351 334 79 67 49 38 28 1 1 7 359 340 322 311 305 304 305 305 304 302 299 298 296 295 295 293 290 288 288 286 284 282 278 272 264 260 257 256 257 257
1 18 358 355 48 83 80 60 47 0 337 343 343 334 322 313 308 305 304 305 303 302 301 299 297 294 292 289 288 285 285 286 285 283 281 280 278 275 271 266 260 255 255 255
58 34 27 48 56 65 59 27 341 339 339 333 328 319 313 315 316 316 314 311 307 303 300 300 298 296 293 290 286 283 283 282 280 279 278 276 275 273 270 268 266 262 258 256
45 33 32 29 352 4 352 339 337 333 329 323 319 320 322 321 318 314 312 310 314 327 328 321 314 308 300 294 288 284 280 277 278 277 274 272 270 269 269 269 267 265 261 259
16 7 4 9 357 345 341 337 336 333 331 328 325 325 328 329 332 335 330 322 318 318 319 324 319 312 305 299 295 292 290 287 282 278 275 273 271 268 266 265 265 265 264 260
339 345 335 334 333 322 315 318 324 332 336 333 332 335 338 338 339 337 332 325 321 319 317 315 321 315 311 302 297 297 294 291 289 286 283 278 274 271 267 264 260 261 261 259
323 326 315 308 306 312 315 316 319 326 330 330 333 335 335 335 335 333 331 330 328 328 325 322 320 316 312 308 305 304 303 301 297 294 290 284 277 272 266 262 261 258 258 256
317 317 307 307 308 315 316 315 311 316 322 326 327 326 325 324 324 324 324 326 328 329 330 326 323 323 316 313 314 314 313 308 303 300 294 289 284 280 273 266 261 257 253 248
318 313 301 295 295 303 311 309 301 306 311 314 315 315 314 315 316 316 317 320 324 327 329 325 325 327 320 320 320 320 320 314 310 305 296 291 291 286 279 271 264 260 250 240
322 324 316 306 298 295 301 300 297 299 303 306 308 310 310 311 312 313 313 317 319 323 325 328 324 329 325 326 325 324 322 320 320 315 299 286 293 290 277 267 255 249 242 225
330 333 327 319 310 302 296 296 297 299 302 304 307 308 310 310 311 309 309 312 315 321 323 327 325 325 327 329 330 330 328 329 325 318 308 294 300 296 280 254 237 237 225 215
317 320 319 317 313 308 304 301 301 301 301 302 302 303 304 304 304 305 306 308 311 317 320 324 322 325 329 332 334 334 334 336 333 329 321 291 295 302 307 229 209 201 205 197
313 315 312 311 308 305 302 301 300 301 301 300 299 299 298 298 299 300 300 302 306 310 315 321 325 325 328 333 336 341 343 344 341 340 334 291 286 280 216 196 201 200 198 201
305 307 311 311 308 305 303 303 302 301 301 299 298 297 294 293 294 296 298 298 302 308 314 319 325 324 327 333 337 346 352 351 352 353 358 342 291 254 179 164 171 180 192 195
301 307 311 314 314 314 312 310 309 308 306 302 300 299 297 294 293 294 296 297 301 305 310 314 321 323 328 333 338 347 355 1 6 7 21 32 73 145 187 188 187 179 173 169
311 315 317 319 321 323 322 321 320 318 314 311 307 302 298 299 290 291 298 303 306 308 307 313 314 325 326 330 338 344 357 3 8 21 37 44 61 84 100 112 113 124 135 147
312 313 318 324 326 328 331 331 330 328 325 319 317 314 310 304 288 291 299 309 312 314 311 313 315 326 319 329 334 340 0 357 9 30 44 60 64 75 86 101 118 132 139 149
313 314 322 326 327 331 332 333 334 334 331 330 329 328 326 318 296 275 296 315 322 321 316 312 314 318 322 322 328 342 350 356 17 36 49 67 77 86 96 103 112 125 134 134
316 317 319 325 328 330 332 336 340 341 337 335 333 319 298 304 316 315 316 311 315 315 314 310 312 317 325 313 324 337 333 353 11 50 76 80 84 96 99 105 113 118 116 115
313 313 315 321 326 328 332 338 341 343 346 347 345 339 326 318 314 312 311 305 297 300 309 310 308 315 320 324 313 322 339 331 12 43 89 103 113 112 109 116 120 123 128 137
307 306 310 319 324 326 330 335 339 341 342 342 341 342 340 338 334 330 328 326 317 309 313 305 312 317 320 329 323 308 307 315 330 34 88 128 133 134 136 137 142 142 144 154
Height
2946 2944 2940 2934 2927 2925 2921 2920 2919 2921 2922 2925 2930 2931 2931 2927 2926 2928 2929 2933 2932 2933 2928 2935 2936 2936 2939 2940 2945 2950 2949 2952 2957 2964 2967 2969 2973 2977 2980 2983 2987 2991 2996 2997
2947 2945 2941 2936 2932 2928 2926 2926 2926 2926 2927 2931 2931 2933 2934 2932 2934 2932 2932 2938 2939 2942 2939 2946 2943 2935 2943 2940 2950 2945 2945 2947 2951 2959 2966 2963 2964 2967 2970 2975 2978 2980 2983 2988
2949 2944 2941 2942 2942 2936 2935 2932 2931 2932 2934 2932 2934 2936 2936 2935 2935 2932 2937 2942 2941 2943 2947 2942 2942 2943 2945 2945 2948 2953 2946 2951 2951 2956 2963 2956 2957 2960 2962 2964 2968 2971 2975 2978
2953 2948 2954 2950 2947 2945 2941 2937 2937 2937 2938 2939 2939 2940 2942 2944 2939 2939 2941 2944 2945 2945 2944 2941 2943 2942 2945 2947 2943 2946 2950 2949 2957 2955 2961 2956 2954 2956 2958 2959 2961 2961 2966 2969
2960 2957 2956 2953 2949 2949 2949 2948 2944 2942 2943 2944 2946 2948 2948 2946 2944 2945 2946 2946 2947 2944 2945 2948 2942 2943 2945 2946 2945 2945 2949 2949 2950 2949 2950 2952 2948 2951 2951 2953 2956 2956 2957 2959
2960 2960 2959 2957 2954 2951 2951 2951 2949 2948 2949 2952 2955 2954 2952 2950 2948 2947 2946 2947 2948 2946 2943 2942 2945 2944 2945 2944 2943 2939 2940 2944 2943 2942 2944 2943 2939 2944 2945 2946 2948 2947 2952 2953
2963 2960 2961 2959 2955 2954 2953 2962 2953 2953 2953 2955 2954 2953 2951 2951 2950 2948 2948 2946 2945 2943 2942 2941 2943 2943 2942 2937 2934 2934 2936 2936 2934 2935 2935 2933 2932 2933 2936 2938 2937 2939 2942 2943
2965 2964 2965 2961 2960 2959 2960 2958 2958 2959 2958 2956 2954 2952 2950 2950 2949 2947 2945 2942 2941 2940 2940 2938 2935 2933 2931 2929 2926 2924 2923 2921 2921 2923 2921 2920 2921 2923 2925 2927 2926 2927 2931 2935
2971 2972 2968 2967 2964 2962 2961 2960 2960 2959 2957 2954 2953 2951 2950 2949 2946 2944 2941 2939 2937 2935 2933 2929 2926 2924 2921 2918 2916 2913 2911 2909 2910 2910 2908 2910 2907 2911 2912 2911 2911 2914 2919 2923
2973 2972 2970 2967 2965 2965 2963 2962 2961 2958 2955 2953 2952 2951 2950 2947 2945 2941 2937 2933 2931 2928 2925 2922 2918 2914 2911 2908 2905 2902 2902 2902 2899 2896 2896 2895 2896 2895 2894 2893 2895 2901 2903 2908
2974 2972 2970 2968 2966 2964 2962 2960 2959 2956 2954 2953 2951 2949 2946 2944 2941 2938 2934 2931 2928 2924 2920 2915 2912 2909 2905 2900 2896 2893 2890 2887 2885 2882 2879 2875 2876 2877 2875 2877 2879 2883 2887 2893
2973 2971 2969 2968 2966 2964 2962 2961 2958 2955 2953 2951 2949 2947 2943 2939 2936 2933 2930 2927 2924 2919 2916 2912 2907 2903 2899 2895 2890 2883 2879 2873 2868 2862 2859 2857 2855 2853 2854 2857 2862 2866 2870 2875
2972 2969 2967 2965 2964 2963 2961 2959 2957 2954 2952 2950 2947 2944 2940 2937 2933 2929 2925 2921 2918 2913 2909 2904 2898 2895 2893 2888 2881 2873 2865 2857 2850 2845 2840 2835 2834 2832 2834 2838 2840 2847 2852 2855
2970 2966 2964 2963 2962 2961 2959 2957 2955 2953 2950 2947 2944 2941 2938 2934 2931 2927 2923 2919 2914 2909 2904 2898 2895 2891 2885 2880 2870 2862 2853 2846 2836 2829 2824 2822 2819 2819 2820 2819 2820 2826 2833 2838
2967 2964 2962 2961 2959 2958 2956 2954 2953 2950 2947 2944 2941 2938 2934 2931 2927 2923 2918 2914 2909 2904 2899 2895 2890 2885 2878 2868 2859 2852 2844 2837 2828 2821 2817 2814 2812 2811 2809 2806 2803 2806 2813 2822
2963 2961 2959 2958 2956 2955 2953 2951 2949 2946 2943 2940 2936 2933 2929 2925 2921 2917 2913 2908 2904 2900 2894 2889 2884 2878 2870 2862 2855 2848 2841 2832 2823 2815 2810 2807 2804 2798 2792 2789 2791 2796 2801 2809
2961 2959 2957 2955 2954 2952 2949 2947 2943 2940 2937 2933 2930 2926 2923 2919 2915 2912 2908 2904 2899 2895 2888 2882 2877 2872 2865 2858 2850 2842 2834 2826 2818 2811 2804 2800 2794 2787 2781 2779 2782 2788 2793 2800
2959 2957 2955 2952 2950 2947 2943 2940 2936 2933 2930 2926 2923 2919 2916 2912 2909 2905 2902 2898 2894 2890 2884 2878 2872 2867 2861 2854 2846 2839 2831 2822 2814 2807 2800 2795 2790 2785 2780 2779 2781 2785 2790 2796
2955 2953 2950 2947 2944 2940 2936 2932 2929 2925 2921 2917 2914 2911 2907 2904 2901 2897 2894 2891 2887 2884 2880 2874 2869 2863 2858 2852 2844 2837 2828 2820 2811 2804 2797 2792 2789 2786 2782 2782 2782 2784 2788 2794
2951 2948 2944 2941 2937 2932 2928 2925 2920 2917 2913 2908 2904 2901 2897 2895 2892 2889 2887 2884 2880 2877 2873 2869 2864 2860 2854 2849 2842 2835 2827 2819 2810 2802 2797 2791 2787 2786 2784 2784 2785 2786 2789 2793
2947 2943 2939 2934 2930 2926 2922 2918 2913 2909 2905 2900 2895 2891 2888 2886 2884 2881 2879 2877 2875 2872 2868 2865 2860 2856 2852 2847 2842 2835 2828 2820 2812 2805 2798 2793 2790 2788 2787 2787 2788 2790 2794 2798
2940 2936 2932 2928 2924 2920 2916 2912 2907 2901 2896 2891 2887 2883 2880 2878 2876 2875 2873 2871 2869 2866 2863 2860 2856 2853 2849 2845 2841 2836 2830 2824 2817 2811 2804 2799 2796 2794 2792 2792 2792 2795 2798 2802
2934 2930 2927 2923 2919 2914 2910 2905 2900 2895 2890 2885 2881 2877 2873 2870 2869 2869 2869 2867 2864 2862 2859 2856 2853 2850 2846 2843 2840 2836 2832 2827 2823 2818 2812 2807 2803 2801 2800 2800 2801 2804 2807 2811
2929 2925 2921 2918 2914 2909 2905 2901 2896 2891 2886 2881 2877 2874 2871 2869 2867 2866 2865 2863 2861 2858 2855 2852 2849 2847 2844 2842 2839 2836 2833 2829 2826 2823 2819 2816 2812 2810 2809 2810 2811 2813 2815 2818
2922 2919 2916 2913 2909 2905 2901 2897 2893 2888 2884 2879 2876 2873 2871 2868 2866 2863 2861 2859 2856 2854 2852 2849 2847 2845 2842 2840 2838 2836 2833 2831 2828 2826 2825 2823 2822 2820 2820 2820 2822 2823 2823 2825
2917 2914 2911 2908 2905 2901 2897 2893 2890 2886 2882 2879 2875 2872 2869 2866 2862 2858 2855 2852 2850 2849 2848 2846 2844 2843 2841 2839 2837 2836 2834 2832 2831 2830 2828 2828 2828 2827 2826 2827 2828 2829 2831 2835
2912 2909 2907 2903 2900 2896 2893 2890 2887 2884 2881 2878 2875 2871 2868 2864 2859 2855 2851 2847 2846 2845 2844 2843 2842 2841 2840 2838 2836 2835 2835 2834 2833 2832 2832 2831 2831 2831 2832 2832 2833 2835 2837 2841